Location: B�di�
(14.6834°N, 3.1047°W)
Time: 22:59:30
(UTC+00:00)

Daily predictions for brighter satellites

Satellite Brightness Start Highest point End
(mag) Time Altitude Azimuth Time Altitude Azimuth Time Altitude Azimuth
Palapa 6 Rocket 4.3 18:14:29 10° WNW 18:21:17 85° NNE 18:29:11 10° ESE
NOAA 12 4.1 18:18:05 10° SSE 18:23:18 87° ENE 18:28:32 10° N
GPS 2-12 Rocket1 3.2 18:18:44 10° WNW 18:23:34 89° SSW 18:28:23 10° ESE
GPS 2-14 Rocket1 3.3 18:21:40 10° SW 18:25:21 45° SSE 18:29:09 10° E
Cosmos 2366 rocket 4.0 18:19:53 10° S 18:26:02 82° E 18:32:16 10° N
NOSS 0 Rocket 3.9 18:21:25 10° NNW 18:27:35 73° ENE 18:33:42 10° SSE
SWIFT 3.2 18:25:43 10° WNW 18:29:37 37° N 18:33:32 10° ENE
OAO 3 Rocket 4.4 18:28:27 10° W 18:32:35 32° NNW 18:36:45 10° NE
Okean-O 2.7 18:32:07 10° S 18:36:32 84° WSW 18:40:58 10° NNW
Cosmos 1269 Rocket 4.0 18:34:35 10° N 18:39:52 81° ENE 18:45:08 10° SSE
Stardust Del rocket 4.2 18:38:52 10° WNW 18:40:57 19° NNW 18:42:44 10° NE
NOSS 3-2 (A) 3.5 18:38:32 10° S 18:43:42 46° ESE 18:49:05 10° NE
CSL-04 Rocket 4.2 18:38:46 10° SE 18:43:43 37° ENE 18:48:42 10° N
CZ-2D R/B 4.2 18:41:37 10° SE 18:44:46 25° ENE 18:47:56 10° NNE
CENTAUR R/B 3.7 18:42:59 10° SE 18:46:13 16° ESE 18:48:36 13° E
Fermi 3.8 18:45:28 10° WSW 18:49:34 71° NNW 18:52:46 16° ENE
Cosmos 44 Rocket 4.0 18:44:57 10° SW 18:49:45 56° WNW 18:54:29 10° NNE
Centaur AC-112 4.1 18:52:08 10° NNW 18:52:54 11° N 18:53:48 10° NNE
Cosmos 1437 4.0 18:52:34 10° SE 18:54:49 19° E 18:55:00 19° E
Cosmos 2237 Rocket 2.2 18:51:28 10° NNW 18:57:05 86° WSW 19:02:42 10° SSE
Timation 1 Rocket 4.4 18:52:32 10° S 18:58:22 59° ESE 19:04:12 10° NNE
CZ-4 R/B 1.3 18:54:34 10° SSE 18:58:31 90° SW 19:02:34 10° NNW
Cosmos 1455 2.2 18:56:40 10° N 19:00:24 79° W 19:04:08 10° S
Cosmos 2056 Rocket 3.9 18:56:26 10° SSE 19:01:13 39° E 19:05:17 14° NE
USA 234 3.7 18:58:12 10° ESE 19:04:10 39° NE 19:10:08 10° NNW
Cosmos 1076 Rocket 4.0 19:00:41 10° SSE 19:04:37 37° E 19:07:41 15° NNE
Atlas Centaur 2 3.9 19:02:10 10° NNW 19:04:41 14° N 19:07:10 11° NNE
Cosmos 2227 4.3 19:00:39 10° SSW 19:06:23 80° WNW 19:12:08 10° NNE
STARLINK-46 3.6 19:06:16 10° S 19:08:26 27° SE 19:08:26 27° SE
BREEZE-M DEB (TANK) 4.0 19:01:31 10° NNW 19:09:17 33° NNE 19:10:40 26° ENE
YAOGAN 1 2.6 19:07:18 10° S 19:11:37 84° WSW 19:15:57 10° NNW
Cosmos 2221 4.1 19:13:38 18° ESE 19:13:38 18° ESE 19:15:13 10° SE
Cosmos 1727 Rocket 3.9 19:05:54 10° N 19:11:59 63° E 19:18:05 10° SSE
CZ-4C R/B 3.8 19:07:01 10° NW 19:15:01 58° WSW 19:23:15 10° S
SL-16 R/B 2.4 19:15:40 10° N 19:21:03 46° ENE 19:26:26 10° SE
USA 238 DEB 3.9 19:15:17 10° SSW 19:21:50 66° WNW 19:28:28 10° NNE
USA 238 3.9 19:15:25 10° SSW 19:21:57 67° WNW 19:28:34 10° NNE
Meteor 1-27 4.2 19:20:36 10° N 19:26:01 53° E 19:31:28 10° SSE
Aurora 2 Rocket 4.4 19:15:31 10° WNW 19:26:17 70° NNE 19:31:27 28° E
GPS 2-18 Rocket1 3.9 19:26:13 10° W 19:29:45 43° SSW 19:30:59 31° SSE
Cosmos 2263 Rocket 2.6 19:25:30 10° SSW 19:30:57 61° WNW 19:36:26 10° N
H-II Stage 2 3.7 19:29:47 10° W 19:33:09 20° SW 19:34:45 12° S
Cosmos 1821 Rocket 4.3 19:27:39 10° SSW 19:34:00 69° W 19:40:20 10° N
IRS-1A Rocket 4.4 19:33:55 10° SSE 19:39:35 52° ENE 19:45:08 10° N
Cosmos 1356 Rocket 3.7 19:35:55 10° NNW 19:39:59 67° W 19:44:07 10° S
SL-4 R/B 4.2 19:36:43 10° S 19:38:52 18° SSE 19:38:52 18° SSE
Cosmos 2251 Rocket 3.4 19:35:05 10° N 19:40:25 78° ENE 19:45:45 10° SSE
Meteor 2-2 Rocket 4.4 19:37:23 10° N 19:43:11 51° E 19:48:54 10° SSE
Cosmos 1844 Rocket 4.5 19:39:13 10° SSE 19:40:34 15° SE 19:40:34 15° SE
Cosmos 1605 Rocket 4.1 19:39:03 10° SSE 19:44:59 48° E 19:45:10 48° E
Intelsat 5-2 Rocket 3.7 19:45:22 10° W 19:48:41 56° N 19:49:29 50° NNE
Ariane H10-3 4.0 19:41:46 10° WSW 19:50:04 21° SSW 19:52:40 14° SSE
Cosmos 1892 4.1 19:48:48 10° S 19:50:55 31° S 19:50:55 31° S
H-2A R/B 2.8 19:51:35 10° WNW 19:55:29 82° NNE 20:18:40 10° ESE
Cosmos 2058 4.3 19:57:13 10° SSW 20:00:59 36° W 20:02:17 28° NW
GPS 2-14 Rocket1 4.4 20:02:21 10° W 20:04:34 31° W 20:04:34 31° W
GPS 2-12 Rocket1 4.4 20:02:43 10° W 20:07:02 33° SSW 20:07:13 33° SSW
BREEZE-M DEB (TANK) 4.5 19:57:40 10° NW 20:06:53 45° N 20:06:53 45° N
Cosmos 1420 Rocket 4.4 20:06:24 10° SSW 20:10:26 55° SSW 20:10:26 55° SSW
SWIFT 4.5 20:07:52 10° WNW 20:09:30 21° NW 20:09:30 21° NW
CZ-3C R/B 1.8 19:55:37 10° WNW 20:12:09 84° NW 20:12:09 84° NW
NOSS 3-2 (C) 4.3 20:09:46 10° SW 20:14:50 39° WNW 20:16:17 33° NNW
ATLAS 3B R/B 2.5 20:09:18 10° SSW 20:16:03 84° SSE 20:16:03 84° SSE
FALCON 9 R/B 4.4 20:13:50 10° W 20:25:23 23° NW 20:27:43 20° NNW
Ariane Rocket 4.3 20:21:22 10° SSW 20:26:00 38° W 20:30:41 10° NNW
Ariane H10-3 4.5 19:37:51 10° WSW 20:28:52 48° S 20:30:48 42° SSE
CENTAUR R/B 3.5 20:31:21 10° SW 20:35:51 35° WNW 20:35:51 35° WNW
H-2A R/B 4.3 20:30:38 10° WSW 21:26:18 58° WNW 21:26:18 58° WNW
